Srmellk International Air, Hungary

2:18 AM CEST on May 30, 2017 (GMT +0200)
Balaton

Weather History for LHSM - December, 2013

Change the Weather History Date:

Thursday, December 12, 2013

  Actual Average Record
Temperature  
Mean Temperature 34 °F -  
Max Temperature 37 °F - - ()
Min Temperature 32 °F - - ()
Degree Days  
Heating Degree Days 30    
Moisture  
Dew Point 28 °F    
Average Humidity 76    
Maximum Humidity 87    
Minimum Humidity 65    
Precipitation  
Precipitation 0.00 in - - ()
Sea Level Pressure  
Sea Level Pressure 30.55 in    
Wind  
Wind Speed 2 mph ()    
Max Wind Speed 4 mph    
Max Gust Speed -    
Visibility 5.9 miles    
Events      
T = Trace of Precipitation, MM = Missing Value Source: Averaged Metar Reports

Daily Weather History Graph

Daily Weather History Graph

Search for Another Location

Airport or City:

Trip Planner

Search our weather history database for the weather conditions in past years. The results will help you decide how hot, cold, wet, or windy it might be!

Date:

Astronomy

Dec. 12, 2013 Rise Set
Actual Time 7:26 AM CET 4:03 PM CET
Civil Twilight 6:51 AM CET 4:38 PM CET
Nautical Twilight 6:13 AM CET 5:16 PM CET
Astronomical Twilight 5:36 AM CET 5:53 PM CET
Moon 1:13 PM CET (12/12) 2:17 AM CET (12/12)
Length of Visible Light 9h 46m
Length of Day
8h 36m
Waxing Gibbous, 78% of the Moon is Illuminated
Dec 12
Waxing Gibbous
Dec 17
Full
Dec 25
Last Quarter
Jan 1
New
Jan 8
First Quarter

Hourly Weather History & Observations

Time (CET) Temp. Windchill Dew Point Humidity Pressure Visibility Wind Dir Wind Speed Gust Speed Precip Events Conditions
5:15 AM 32.0 °F - 26.6 °F 80% 30.57 in - SSE 1.2 mph - N/A   Clear
5:45 AM 32.0 °F - 26.6 °F 80% 30.57 in - SE 1.2 mph - N/A   Clear
6:00 AM - - - N/A% - 6.2 mi Variable 3.5 mph - N/A   Overcast
6:15 AM 32.0 °F - 26.6 °F 80% 30.57 in 3.7 mi SSE 1.2 mph - N/A   Overcast
6:45 AM 32.0 °F - 26.6 °F 80% 30.57 in 3.7 mi Calm Calm - N/A   Overcast
7:15 AM 32.0 °F 28.7 °F 28.4 °F 87% 30.57 in 5.6 mi SW 3.5 mph - N/A   Mostly Cloudy
7:45 AM 32.0 °F - 28.4 °F 87% 30.57 in 6.2 mi Calm Calm - N/A   Mostly Cloudy
8:15 AM 32.0 °F - 28.4 °F 87% 30.57 in 6.2 mi East 2.3 mph - N/A   Mostly Cloudy
8:45 AM 32.0 °F 28.7 °F 28.4 °F 87% 30.57 in 6.2 mi SE 3.5 mph - N/A   Mostly Cloudy
9:00 AM - - - N/A% - 5.0 mi Variable 3.5 mph - N/A   Overcast
9:15 AM 33.8 °F - 28.4 °F 81% 30.57 in 6.2 mi South 2.3 mph - N/A   Mostly Cloudy
9:45 AM 33.8 °F - 28.4 °F 81% 30.57 in 6.2 mi ESE 2.3 mph - N/A   Mostly Cloudy
10:15 AM 33.8 °F 30.8 °F 26.6 °F 75% 30.57 in 6.2 mi ESE 3.5 mph - N/A   Mostly Cloudy
10:45 AM 33.8 °F - 28.4 °F 81% 30.57 in 6.2 mi SSE 2.3 mph - N/A   Mostly Cloudy
11:15 AM 35.6 °F - 26.6 °F 70% 30.57 in 6.2 mi South 2.3 mph - N/A   Mostly Cloudy
11:45 AM 35.6 °F - 28.4 °F 75% 30.57 in 6.2 mi SSW 2.3 mph - N/A   Mostly Cloudy
12:00 PM - - - N/A% - 5.0 mi Variable 3.5 mph - N/A   Overcast
12:15 PM 35.6 °F - 26.6 °F 70% 30.54 in 6.2 mi SSW 2.3 mph - N/A   Mostly Cloudy
12:45 PM 37.4 °F - 26.6 °F 65% 30.54 in 6.2 mi SSE 2.3 mph - N/A   Mostly Cloudy
1:15 PM 37.4 °F - 26.6 °F 65% 30.54 in 6.2 mi South 1.2 mph - N/A   Mostly Cloudy
1:45 PM 37.4 °F - 26.6 °F 65% 30.51 in 6.2 mi SSE 1.2 mph - N/A   Mostly Cloudy
2:15 PM 37.4 °F - 26.6 °F 65% 30.51 in 6.2 mi Calm Calm - N/A   Mostly Cloudy
2:45 PM 37.4 °F - 28.4 °F 70% 30.51 in 6.2 mi SSW 1.2 mph - N/A   Mostly Cloudy
3:15 PM 37.4 °F - 28.4 °F 70% 30.51 in 6.2 mi SE 2.3 mph - N/A   Mostly Cloudy
3:45 PM 37.4 °F - 30.2 °F 75% 30.51 in 6.2 mi East 2.3 mph - N/A   Mostly Cloudy
4:15 PM 37.4 °F - 28.4 °F 70% 30.48 in 6.2 mi Calm Calm - N/A   Mostly Cloudy
4:45 PM 37.4 °F - 30.2 °F 75% 30.48 in 6.2 mi Calm Calm - N/A   Mostly Cloudy
5:00 PM - - - N/A% - - North - - N/A   Unknown